Date String (YYYY-MM-DD hh:mm:ss) UTC,Instrument flags,Ambient pressure (hPa),Sample flow (lpm),Bypass flow (lpm),Sample temperature (°C),Ambient temperature (°C),ASC tube jacket temperature (°C),LED temperature (°C),Box temperature (°C),Sample RH (%),Span deviation,Mass concentration (μg/m³),Mass concentration (μg/m³),Mass concentration (μg/m³)
DateTimeUTC,F1_M11,P_M11,Q1_M11,Q2_M11,T1_M11,T2_M11,T3_M11,T4_M11,T5_M11,U1_M11,ZSPAN_M11,X0_M11,X2_M11,X1_M11
2022-10-23 05:00:00,,0807.8,5.00,0.00,30.1,28.7,00.0,39.0,32.0,08.5,0000.0,0010.09,0002.57,0001.66
2022-10-23 05:01:00,,0807.7,4.99,0.00,30.1,28.7,00.0,39.0,32.0,08.5,0000.0,0010.16,0002.65,0001.68
2022-10-23 05:02:00,,0807.7,5.00,0.00,30.1,28.7,00.0,39.0,32.0,08.5,0000.0,0009.47,0002.69,0001.70
2022-10-23 05:03:00,,0807.9,5.00,0.00,30.1,28.7,00.0,39.0,32.0,08.5,0000.0,0008.41,0002.69,0001.72
2022-10-23 05:04:00,,0807.8,5.01,0.00,30.2,28.7,00.0,39.0,32.0,08.3,0000.0,0008.28,0002.72,0001.75
2022-10-23 05:05:00,,0807.8,5.00,0.00,30.2,28.7,00.0,39.0,32.0,08.3,0000.0,0007.97,0002.80,0001.77
2022-10-23 05:06:00,,0807.8,5.00,0.00,30.2,28.8,00.0,39.0,32.0,08.3,0000.0,0007.83,0002.79,0001.79
2022-10-23 05:07:00,,0807.8,5.00,0.00,30.2,28.8,00.0,39.0,32.0,08.3,0000.0,0007.66,0002.77,0001.81
2022-10-23 05:08:00,,0807.7,4.99,0.00,30.2,28.8,00.0,39.0,32.0,08.3,0000.0,0007.83,0002.82,0001.83
2022-10-23 05:09:00,,0807.7,5.00,0.00,30.2,28.7,00.0,39.0,32.0,08.2,0000.0,0006.35,0002.80,0001.84
2022-10-23 05:10:00,,0807.7,5.00,0.00,30.2,28.7,00.0,39.0,32.0,08.1,0000.0,0006.22,0002.83,0001.85
2022-10-23 05:11:00,,0807.7,5.00,0.00,30.2,28.8,00.0,39.0,32.0,08.1,0000.0,0006.87,0002.83,0001.85
2022-10-23 05:12:00,,0807.6,5.00,0.00,30.2,28.8,00.0,39.0,32.0,08.1,0000.0,0007.16,0002.85,0001.86
2022-10-23 05:13:00,,0807.7,5.00,0.00,30.2,28.7,00.0,39.0,32.1,08.0,0000.0,0007.37,0002.85,0001.86
2022-10-23 05:14:00,,0807.6,5.01,0.00,30.2,28.7,00.0,39.0,32.0,08.0,0000.0,0007.40,0002.89,0001.84
2022-10-23 05:15:00,,0807.6,5.00,0.00,30.2,28.8,00.0,39.0,32.0,08.0,0000.0,0008.07,0002.87,0001.83
2022-10-23 05:16:00,,0807.6,5.00,0.00,30.2,28.8,00.0,39.0,32.1,08.0,0000.0,0007.95,0002.76,0001.82
2022-10-23 05:17:00,,0807.7,5.00,0.00,30.2,28.7,00.0,39.0,32.0,08.0,0000.0,0008.10,0002.72,0001.80
2022-10-23 05:18:00,,0807.6,5.00,0.00,30.2,28.7,00.0,39.1,32.0,08.0,0000.0,0008.52,0002.69,0001.79
2022-10-23 05:19:00,,0807.6,5.00,0.00,30.2,28.7,00.0,39.1,32.0,08.0,0000.0,0008.81,0002.63,0001.79
2022-10-23 05:20:00,,0807.6,5.00,0.00,30.2,28.8,00.0,39.1,32.1,08.0,0000.0,0009.32,0002.61,0001.78
2022-10-23 05:21:00,,0807.6,5.02,0.00,30.2,28.8,00.0,39.1,32.1,08.1,0000.0,0009.26,0002.51,0001.77
2022-10-23 05:22:00,,0807.6,5.00,0.00,30.2,28.7,00.0,39.1,32.0,08.0,0000.0,0009.94,0002.50,0001.77
2022-10-23 05:23:00,,0807.6,5.00,0.00,30.2,28.7,00.0,39.1,32.0,08.1,0000.0,0010.13,0002.46,0001.76
2022-10-23 05:24:00,,0807.6,4.99,0.00,30.2,28.7,00.0,39.1,32.0,08.1,0000.0,0010.08,0002.48,0001.76
2022-10-23 05:25:00,,0807.5,4.99,0.00,30.2,28.7,00.0,39.1,32.0,08.2,0000.0,0010.00,0002.44,0001.77
2022-10-23 05:26:00,,0807.5,5.02,0.00,30.2,28.6,00.0,39.1,32.0,08.2,0000.0,0009.15,0002.39,0001.77
2022-10-23 05:27:00,,0807.5,5.00,0.00,30.2,28.6,00.0,39.1,32.0,08.2,0000.0,0009.20,0002.44,0001.77
2022-10-23 05:28:00,,0807.5,5.00,0.00,30.2,28.6,00.0,39.1,32.0,08.1,0000.0,0009.01,0002.51,0001.79
2022-10-23 05:29:00,,0807.4,4.99,0.00,30.2,28.6,00.0,39.1,32.0,08.1,0000.0,0008.58,0002.53,0001.78
2022-10-23 05:30:00,,0807.4,5.00,0.00,30.2,28.7,00.0,39.1,32.0,08.2,0000.0,0008.31,0002.56,0001.76
2022-10-23 05:31:00,,0807.4,5.00,0.00,30.2,28.7,00.0,39.1,32.0,08.2,0000.0,0008.24,0002.59,0001.75
2022-10-23 05:32:00,,0807.4,5.00,0.00,30.2,28.7,00.0,39.1,32.0,08.1,0000.0,0008.44,0002.59,0001.74
2022-10-23 05:33:00,,0807.4,5.01,0.00,30.2,28.7,00.0,39.1,32.0,08.0,0000.0,0007.45,0002.53,0001.73
2022-10-23 05:34:00,,0807.4,5.01,0.00,30.2,28.7,00.0,39.1,32.0,08.0,0000.0,0006.59,0002.50,0001.71
2022-10-23 05:35:00,,0807.4,5.00,0.00,30.2,28.7,00.0,39.1,32.0,08.0,0000.0,0006.51,0002.45,0001.69
2022-10-23 05:36:00,,0807.4,4.99,0.00,30.2,28.7,00.0,39.1,32.0,08.1,0000.0,0006.56,0002.48,0001.67
2022-10-23 05:37:00,,0807.4,5.00,0.00,30.2,28.7,00.0,39.1,32.0,08.1,0000.0,0007.23,0002.58,0001.67
2022-10-23 05:38:00,,0807.4,5.00,0.00,30.2,28.6,00.0,39.1,32.0,08.1,0000.0,0007.96,0002.57,0001.66
2022-10-23 05:39:00,,0807.4,5.02,0.00,30.2,28.6,00.0,39.1,32.0,08.1,0000.0,0008.04,0002.48,0001.64
2022-10-23 05:40:00,,0807.4,5.00,0.00,30.2,28.6,00.0,39.1,32.0,08.2,0000.0,0008.04,0002.42,0001.64
2022-10-23 05:41:00,,0807.4,5.00,0.00,30.2,28.6,00.0,39.1,32.0,08.2,0000.0,0007.87,0002.40,0001.66
2022-10-23 05:42:00,,0807.4,5.00,0.00,30.2,28.6,00.0,39.1,32.0,08.3,0000.0,0007.37,0002.40,0001.67
2022-10-23 05:43:00,,0807.4,4.99,0.00,30.2,28.6,00.0,39.1,32.0,08.3,0000.0,0007.46,0002.42,0001.70
2022-10-23 05:44:00,,0807.4,4.99,0.00,30.2,28.6,00.0,39.1,32.0,08.4,0000.0,0007.44,0002.42,0001.73
2022-10-23 05:45:00,,0807.4,5.00,0.00,30.2,28.6,00.0,39.1,32.0,08.4,0000.0,0007.85,0002.46,0001.75
2022-10-23 05:46:00,,0807.4,5.01,0.00,30.2,28.6,00.0,39.1,31.9,08.5,0000.0,0007.86,0002.48,0001.76
2022-10-23 05:47:00,,0807.4,5.00,0.00,30.1,28.5,00.0,39.1,31.9,08.4,0000.0,0008.02,0002.45,0001.78
2022-10-23 05:48:00,,0807.4,5.00,0.00,30.1,28.5,00.0,39.1,31.9,08.4,0000.0,0007.88,0002.40,0001.78
2022-10-23 05:49:00,,0807.4,5.00,0.00,30.1,28.5,00.0,39.0,31.9,08.3,0000.0,0007.03,0002.37,0001.79
2022-10-23 05:50:00,,0807.4,5.01,0.00,30.1,28.5,00.0,39.0,31.9,08.4,0000.0,0006.72,0002.40,0001.80
2022-10-23 05:51:00,,0807.4,5.01,0.00,30.1,28.5,00.0,39.0,31.9,08.4,0000.0,0006.69,0002.43,0001.80
2022-10-23 05:52:00,,0807.3,4.99,0.00,30.1,28.6,00.0,39.0,31.9,08.2,0000.0,0006.31,0002.38,0001.80
2022-10-23 05:53:00,,0807.3,5.00,0.00,30.1,28.6,00.0,39.0,31.9,08.2,0000.0,0006.42,0002.37,0001.78
2022-10-23 05:54:00,,0807.3,4.99,0.00,30.1,28.7,00.0,39.0,32.0,08.2,0000.0,0005.93,0002.34,0001.74
2022-10-23 05:55:00,,0807.2,4.99,0.00,30.2,28.7,00.0,39.0,32.0,08.1,0000.0,0005.98,0002.40,0001.71
2022-10-23 05:56:00,,0807.2,5.00,0.00,30.2,28.7,00.0,39.0,32.0,08.0,0000.0,0005.59,0002.40,0001.68
2022-10-23 05:57:00,,0807.2,5.00,0.00,30.2,28.7,00.0,39.0,32.0,08.0,0000.0,0005.59,0002.42,0001.66
2022-10-23 05:58:00,,0807.2,5.00,0.00,30.2,28.7,00.0,39.0,32.0,08.0,0000.0,0005.36,0002.39,0001.63
2022-10-23 05:59:00,,0807.1,5.00,0.00,30.2,28.7,00.0,39.0,32.0,07.9,0000.0,0005.41,0002.32,0001.61
